Year,Month,Day,Hour,Minute,Value (Times are PST for windgust in km/hr)
2022,04,03,00,00,3.20
2022,04,03,00,01,3.20
2022,04,03,00,02,3.20
2022,04,03,00,03,6.40
2022,04,03,00,04,3.20
2022,04,03,00,05,6.40
2022,04,03,00,06,6.40
2022,04,03,00,07,4.80
2022,04,03,00,08,6.40
2022,04,03,00,09,6.40
2022,04,03,00,10,6.40
2022,04,03,00,11,6.40
2022,04,03,00,12,8.10
2022,04,03,00,13,6.40
2022,04,03,00,14,6.40
2022,04,03,00,15,6.40
2022,04,03,00,16,6.40
2022,04,03,00,17,6.40
2022,04,03,00,18,6.40
2022,04,03,00,19,4.80
2022,04,03,00,20,6.40
2022,04,03,00,21,4.80
2022,04,03,00,22,4.80
2022,04,03,00,23,6.40
2022,04,03,00,24,8.10
2022,04,03,00,25,6.40
2022,04,03,00,26,8.10
2022,04,03,00,27,6.40
2022,04,03,00,28,6.40
2022,04,03,00,29,6.40
2022,04,03,00,30,6.40
2022,04,03,00,31,6.40
2022,04,03,00,32,6.40
2022,04,03,00,33,8.10
2022,04,03,00,34,9.60
2022,04,03,00,35,8.10
2022,04,03,00,36,4.80
2022,04,03,00,37,4.80
2022,04,03,00,38,6.40
2022,04,03,00,39,4.80
2022,04,03,00,40,4.80
2022,04,03,00,41,6.40
2022,04,03,00,42,4.80
2022,04,03,00,43,4.80
2022,04,03,00,44,6.40
2022,04,03,00,45,8.10
2022,04,03,00,46,6.40
2022,04,03,00,47,4.80
2022,04,03,00,48,4.80
2022,04,03,00,49,8.10
2022,04,03,00,50,8.10
2022,04,03,00,51,4.80
2022,04,03,00,52,6.40
2022,04,03,00,53,8.10
2022,04,03,00,54,6.40
2022,04,03,00,55,4.80
2022,04,03,00,56,3.20
2022,04,03,00,57,3.20
2022,04,03,00,58,6.40
2022,04,03,00,59,4.80
2022,04,03,01,00,4.80
2022,04,03,01,01,4.80
2022,04,03,01,02,3.20
2022,04,03,01,03,1.60
2022,04,03,01,04,3.20
2022,04,03,01,05,4.80
2022,04,03,01,06,4.80
2022,04,03,01,07,3.20
2022,04,03,01,08,3.20
2022,04,03,01,09,4.80
2022,04,03,01,10,4.80
2022,04,03,01,11,4.80
2022,04,03,01,12,6.40
2022,04,03,01,13,6.40
2022,04,03,01,14,4.80
2022,04,03,01,15,4.80
2022,04,03,01,16,4.80
2022,04,03,01,17,4.80
2022,04,03,01,18,3.20
2022,04,03,01,19,1.60
2022,04,03,01,20,1.60
2022,04,03,01,21,1.60
2022,04,03,01,22,4.80
2022,04,03,01,23,4.80
2022,04,03,01,24,3.20
2022,04,03,01,25,3.20
2022,04,03,01,26,3.20
2022,04,03,01,28,1.60
2022,04,03,01,29,3.20
2022,04,03,01,30,3.20
2022,04,03,01,31,3.20
2022,04,03,01,32,3.20
2022,04,03,01,33,1.60
2022,04,03,01,34,4.80
2022,04,03,01,35,1.60
2022,04,03,01,36,3.20
2022,04,03,01,37,3.20
2022,04,03,01,38,3.20
2022,04,03,01,39,1.60
2022,04,03,01,40,1.60
2022,04,03,01,44,3.20
2022,04,03,01,45,3.20
2022,04,03,01,46,3.20
2022,04,03,01,47,1.60
2022,04,03,01,48,3.20
2022,04,03,01,49,4.80
2022,04,03,01,50,6.40
2022,04,03,01,51,4.80
2022,04,03,01,52,3.20
2022,04,03,01,54,1.60
2022,04,03,01,55,4.80
2022,04,03,01,56,4.80
2022,04,03,01,57,4.80
2022,04,03,01,58,4.80
2022,04,03,01,59,4.80
2022,04,03,02,00,3.20
2022,04,03,02,01,3.20
2022,04,03,02,02,1.60
2022,04,03,02,03,1.60
2022,04,03,02,04,6.40
2022,04,03,02,05,6.40
2022,04,03,02,06,4.80
2022,04,03,02,07,6.40
2022,04,03,02,08,4.80
2022,04,03,02,09,4.80
2022,04,03,02,10,4.80
2022,04,03,02,11,6.40
2022,04,03,02,12,4.80
2022,04,03,02,13,9.60
2022,04,03,02,14,8.10
2022,04,03,02,15,4.80
2022,04,03,02,16,8.10
2022,04,03,02,17,8.10
2022,04,03,02,18,4.80
2022,04,03,02,19,1.60
2022,04,03,02,20,4.80
2022,04,03,02,21,6.40
2022,04,03,02,22,8.10
2022,04,03,02,23,6.40
2022,04,03,02,24,6.40
2022,04,03,02,25,4.80
2022,04,03,02,26,6.40
2022,04,03,02,27,4.80
2022,04,03,02,28,4.80
2022,04,03,02,29,3.20
2022,04,03,02,30,1.60
2022,04,03,02,31,1.60
2022,04,03,02,33,6.40
2022,04,03,02,34,11.30
2022,04,03,02,35,9.60
2022,04,03,02,36,8.10
2022,04,03,02,37,4.80
2022,04,03,02,38,3.20
2022,04,03,02,39,4.80
2022,04,03,02,40,3.20
2022,04,03,02,41,1.60
2022,04,03,02,42,1.60
2022,04,03,02,43,1.60
2022,04,03,02,44,3.20
2022,04,03,02,45,3.20
2022,04,03,02,46,3.20
2022,04,03,02,47,6.40
2022,04,03,02,48,3.20
2022,04,03,02,49,9.60
2022,04,03,02,50,11.30
2022,04,03,02,51,11.30
2022,04,03,02,52,9.60
2022,04,03,02,53,9.60
2022,04,03,02,54,6.40
2022,04,03,02,55,4.80
2022,04,03,02,56,3.20
2022,04,03,02,57,3.20
2022,04,03,02,58,4.80
2022,04,03,02,59,4.80
2022,04,03,03,00,4.80
2022,04,03,03,01,4.80
2022,04,03,03,02,6.40
2022,04,03,03,03,6.40
2022,04,03,03,04,4.80
2022,04,03,03,05,3.20
2022,04,03,03,06,3.20
2022,04,03,03,07,3.20
2022,04,03,03,08,3.20
2022,04,03,03,09,3.20
2022,04,03,03,10,3.20
2022,04,03,03,11,4.80
2022,04,03,03,12,4.80
2022,04,03,03,13,3.20
2022,04,03,03,14,4.80
2022,04,03,03,15,4.80
2022,04,03,03,16,4.80
2022,04,03,03,17,3.20
2022,04,03,03,18,1.60
2022,04,03,03,19,3.20
2022,04,03,03,20,3.20
2022,04,03,03,21,6.40
2022,04,03,03,22,6.40
2022,04,03,03,23,8.10
2022,04,03,03,24,11.30
2022,04,03,03,25,9.60
2022,04,03,03,26,6.40
2022,04,03,03,27,11.30
2022,04,03,03,28,11.30
2022,04,03,03,29,11.30
2022,04,03,03,30,11.30
2022,04,03,03,31,8.10
2022,04,03,03,32,6.40
2022,04,03,03,33,6.40
2022,04,03,03,34,4.80
2022,04,03,03,35,4.80
2022,04,03,03,38,6.40
2022,04,03,03,39,8.10
2022,04,03,03,40,9.60
2022,04,03,03,41,14.50
2022,04,03,03,42,12.90
2022,04,03,03,43,11.30
2022,04,03,03,44,9.60
2022,04,03,03,45,9.60
2022,04,03,03,46,8.10
2022,04,03,03,47,8.10
2022,04,03,03,48,6.40
2022,04,03,03,49,4.80
2022,04,03,03,50,6.40
2022,04,03,03,51,9.60
2022,04,03,03,52,9.60
2022,04,03,03,53,9.60
2022,04,03,03,54,11.30
2022,04,03,03,55,16.10
2022,04,03,03,56,14.50
2022,04,03,03,57,11.30
2022,04,03,03,58,9.60
2022,04,03,03,59,8.10
2022,04,03,04,00,8.10
2022,04,03,04,01,4.80
2022,04,03,04,02,4.80
2022,04,03,04,03,6.40
2022,04,03,04,04,6.40
2022,04,03,04,05,8.10
2022,04,03,04,06,6.40
2022,04,03,04,07,8.10
2022,04,03,04,08,8.10
2022,04,03,04,09,4.80
2022,04,03,04,10,3.20
2022,04,03,04,11,3.20
2022,04,03,04,13,1.60
2022,04,03,04,14,3.20
2022,04,03,04,15,1.60
2022,04,03,04,16,1.60
2022,04,03,04,17,3.20
2022,04,03,04,18,3.20
2022,04,03,04,19,3.20
2022,04,03,04,20,4.80
2022,04,03,04,21,4.80
2022,04,03,04,22,4.80
2022,04,03,04,23,8.10
2022,04,03,04,24,9.60
2022,04,03,04,25,8.10
2022,04,03,04,26,9.60
2022,04,03,04,27,9.60
2022,04,03,04,28,9.60
2022,04,03,04,29,8.10
2022,04,03,04,30,6.40
2022,04,03,04,31,4.80
2022,04,03,04,32,1.60
2022,04,03,04,34,1.60
2022,04,03,04,35,3.20
2022,04,03,04,36,3.20
2022,04,03,04,37,3.20
2022,04,03,04,38,3.20
2022,04,03,04,39,3.20
2022,04,03,04,40,4.80
2022,04,03,04,41,4.80
2022,04,03,04,42,3.20
2022,04,03,04,43,4.80
2022,04,03,04,44,4.80
2022,04,03,04,45,3.20
2022,04,03,04,46,1.60
2022,04,03,04,47,1.60
2022,04,03,04,48,1.60
2022,04,03,04,49,3.20
2022,04,03,04,50,1.60
2022,04,03,04,52,3.20
2022,04,03,04,53,3.20
2022,04,03,04,54,3.20
2022,04,03,04,55,1.60
2022,04,03,04,57,3.20
2022,04,03,04,58,6.40
2022,04,03,04,59,4.80
2022,04,03,05,00,3.20
2022,04,03,05,01,3.20
2022,04,03,05,02,3.20
2022,04,03,05,03,3.20
2022,04,03,05,05,1.60
2022,04,03,05,06,3.20
2022,04,03,05,07,1.60
2022,04,03,05,09,1.60
2022,04,03,05,10,3.20
2022,04,03,05,11,3.20
2022,04,03,05,12,3.20
2022,04,03,05,13,1.60
2022,04,03,05,16,1.60
2022,04,03,05,26,3.20
2022,04,03,05,28,1.60
2022,04,03,05,30,1.60
2022,04,03,05,31,1.60
2022,04,03,05,33,1.60
2022,04,03,05,34,1.60
2022,04,03,05,35,1.60
2022,04,03,05,39,1.60
2022,04,03,05,40,1.60
2022,04,03,05,41,1.60
2022,04,03,05,42,1.60
2022,04,03,05,43,3.20
2022,04,03,05,44,6.40
2022,04,03,05,45,6.40
2022,04,03,05,46,6.40
2022,04,03,05,47,8.10
2022,04,03,05,48,8.10
2022,04,03,05,49,8.10
2022,04,03,05,50,6.40
2022,04,03,05,51,3.20
2022,04,03,05,52,8.10
2022,04,03,05,53,8.10
2022,04,03,05,54,8.10
2022,04,03,05,55,8.10
2022,04,03,05,56,6.40
2022,04,03,05,57,4.80
2022,04,03,05,58,4.80
2022,04,03,05,59,1.60
2022,04,03,06,00,3.20
2022,04,03,06,01,8.10
2022,04,03,06,02,9.60
2022,04,03,06,03,6.40
2022,04,03,06,04,4.80
2022,04,03,06,05,4.80
2022,04,03,06,06,4.80
2022,04,03,06,07,4.80
2022,04,03,06,08,4.80
2022,04,03,06,09,4.80
2022,04,03,06,10,4.80
2022,04,03,06,11,4.80
2022,04,03,06,12,4.80
2022,04,03,06,13,4.80
2022,04,03,08,11,6.40
2022,04,03,08,12,4.80
2022,04,03,08,13,6.40
2022,04,03,08,14,9.60
2022,04,03,08,15,4.80
2022,04,03,08,16,16.10
2022,04,03,08,17,16.10
2022,04,03,08,18,14.50
2022,04,03,08,19,16.10
2022,04,03,08,20,14.50
2022,04,03,08,21,12.90
2022,04,03,08,22,16.10
2022,04,03,08,23,8.10
2022,04,03,08,24,14.50
2022,04,03,08,25,14.50
2022,04,03,08,26,14.50
2022,04,03,08,27,11.30
2022,04,03,08,28,11.30
2022,04,03,08,29,9.60
2022,04,03,08,30,11.30
2022,04,03,08,31,16.10
2022,04,03,08,32,14.50
2022,04,03,08,33,6.40
2022,04,03,08,34,11.30
2022,04,03,08,35,11.30
2022,04,03,08,36,9.60
2022,04,03,08,37,8.10
2022,04,03,08,38,8.10
2022,04,03,08,39,8.10
2022,04,03,08,40,8.10
2022,04,03,08,41,9.60
2022,04,03,08,42,11.30
2022,04,03,08,43,11.30
2022,04,03,08,44,9.60
2022,04,03,08,45,8.10
2022,04,03,08,46,6.40
2022,04,03,08,47,4.80
2022,04,03,08,48,3.20
2022,04,03,08,49,9.60
2022,04,03,08,50,8.10
2022,04,03,08,51,3.20
2022,04,03,08,52,3.20
2022,04,03,08,53,3.20
2022,04,03,08,54,4.80
2022,04,03,08,55,3.20
2022,04,03,08,56,1.60
2022,04,03,08,57,4.80
2022,04,03,08,58,3.20
2022,04,03,08,59,4.80
2022,04,03,09,00,1.60
2022,04,03,09,01,1.60
2022,04,03,09,02,1.60
2022,04,03,09,03,8.10
2022,04,03,09,04,11.30
2022,04,03,09,05,11.30
2022,04,03,09,06,11.30
2022,04,03,09,07,8.10
2022,04,03,09,08,3.20
2022,04,03,09,09,1.60
2022,04,03,09,10,4.80
2022,04,03,09,11,8.10
2022,04,03,09,12,3.20
2022,04,03,09,13,1.60
2022,04,03,09,14,1.60
2022,04,03,09,15,1.60
2022,04,03,09,16,3.20
2022,04,03,09,17,4.80
2022,04,03,09,18,6.40
2022,04,03,09,19,4.80
2022,04,03,09,20,6.40
2022,04,03,09,21,1.60
2022,04,03,09,22,1.60
2022,04,03,09,23,4.80
2022,04,03,09,24,3.20
2022,04,03,09,25,1.60
2022,04,03,09,26,3.20
2022,04,03,09,27,3.20
2022,04,03,09,29,1.60
2022,04,03,09,30,1.60
2022,04,03,09,31,3.20
2022,04,03,09,32,3.20
2022,04,03,09,33,1.60
2022,04,03,09,34,1.60
2022,04,03,09,35,1.60
2022,04,03,09,36,1.60
2022,04,03,09,37,1.60
2022,04,03,09,38,3.20
2022,04,03,09,39,1.60
2022,04,03,09,40,1.60
2022,04,03,09,41,1.60
2022,04,03,09,43,1.60
2022,04,03,09,44,3.20
2022,04,03,09,45,1.60
2022,04,03,09,46,1.60
2022,04,03,09,47,1.60
2022,04,03,09,48,1.60
2022,04,03,09,49,1.60
2022,04,03,09,50,6.40
2022,04,03,09,51,3.20
2022,04,03,09,52,3.20
2022,04,03,09,53,4.80
2022,04,03,09,54,6.40
2022,04,03,09,55,8.10
2022,04,03,09,56,3.20
2022,04,03,09,57,8.10
2022,04,03,09,58,8.10
2022,04,03,09,59,3.20
2022,04,03,10,00,8.10
2022,04,03,10,01,8.10
2022,04,03,10,02,4.80
2022,04,03,10,03,4.80
2022,04,03,10,04,3.20
2022,04,03,10,05,1.60
2022,04,03,10,06,3.20
2022,04,03,10,07,4.80
2022,04,03,10,08,6.40
2022,04,03,10,09,4.80
2022,04,03,10,10,8.10
2022,04,03,10,11,8.10
2022,04,03,10,12,8.10
2022,04,03,10,13,4.80
2022,04,03,10,14,3.20
2022,04,03,10,15,4.80
2022,04,03,10,16,9.60
2022,04,03,10,17,14.50
2022,04,03,10,18,11.30
2022,04,03,10,19,6.40
2022,04,03,10,20,17.70
2022,04,03,10,21,17.70
2022,04,03,10,22,11.30
2022,04,03,10,23,11.30
2022,04,03,10,24,14.50
2022,04,03,10,25,14.50
2022,04,03,10,26,12.90
2022,04,03,10,27,9.60
2022,04,03,10,28,9.60
2022,04,03,10,29,8.10
2022,04,03,10,30,19.30
2022,04,03,10,31,16.10
2022,04,03,10,32,19.30
2022,04,03,10,33,20.90
2022,04,03,10,34,19.30
2022,04,03,10,35,22.50
2022,04,03,10,36,22.50
2022,04,03,10,37,14.50
2022,04,03,10,38,14.50
2022,04,03,10,39,14.50
2022,04,03,10,40,11.30
2022,04,03,10,41,19.30
2022,04,03,10,42,19.30
2022,04,03,10,43,19.30
2022,04,03,10,44,17.70
2022,04,03,10,45,20.90
2022,04,03,10,46,17.70
2022,04,03,10,47,17.70
2022,04,03,10,48,17.70
2022,04,03,10,49,11.30
2022,04,03,10,50,11.30
2022,04,03,10,51,17.70
2022,04,03,10,52,25.70
2022,04,03,10,53,20.90
2022,04,03,10,54,24.20
2022,04,03,10,55,14.50
2022,04,03,10,56,22.50
2022,04,03,10,57,24.20
2022,04,03,10,58,17.70
2022,04,03,10,59,19.30
2022,04,03,11,00,14.50
2022,04,03,11,01,19.30
2022,04,03,11,02,22.50
2022,04,03,11,03,22.50
2022,04,03,11,04,17.70
2022,04,03,11,05,14.50
2022,04,03,11,06,22.50
2022,04,03,11,07,22.50
2022,04,03,11,08,20.90
2022,04,03,11,09,30.60
2022,04,03,11,10,27.40
2022,04,03,11,11,25.70
2022,04,03,11,12,25.70
2022,04,03,11,13,24.20
2022,04,03,11,14,24.20
2022,04,03,11,15,17.70
2022,04,03,11,16,19.30
2022,04,03,11,17,27.40
2022,04,03,11,18,22.50
2022,04,03,11,19,24.20
2022,04,03,11,20,25.70
2022,04,03,11,21,24.20
2022,04,03,11,22,22.50
2022,04,03,11,23,22.50
2022,04,03,11,24,20.90
2022,04,03,11,25,20.90
2022,04,03,11,26,19.30
2022,04,03,11,27,24.20
2022,04,03,11,28,20.90
2022,04,03,11,29,25.70
2022,04,03,11,30,22.50
2022,04,03,11,31,24.20
2022,04,03,11,32,24.20
2022,04,03,11,33,19.30
2022,04,03,11,34,20.90
2022,04,03,11,35,24.20
2022,04,03,11,36,22.50
2022,04,03,11,37,24.20
2022,04,03,11,38,27.40
2022,04,03,11,39,27.40
2022,04,03,11,40,27.40
2022,04,03,11,41,19.30
2022,04,03,11,42,17.70
2022,04,03,11,43,20.90
2022,04,03,11,44,17.70
2022,04,03,11,45,29.00
2022,04,03,11,46,29.00
2022,04,03,11,47,25.70
2022,04,03,11,48,22.50
2022,04,03,11,49,22.50
2022,04,03,11,50,19.30
2022,04,03,11,51,14.50
2022,04,03,11,52,19.30
2022,04,03,11,53,24.20
2022,04,03,11,54,22.50
2022,04,03,11,55,22.50
2022,04,03,11,56,20.90
2022,04,03,11,57,17.70
2022,04,03,11,58,20.90
2022,04,03,11,59,17.70
2022,04,03,12,00,25.70
2022,04,03,12,01,27.40
2022,04,03,12,02,20.90
2022,04,03,12,03,20.90
2022,04,03,12,04,20.90
2022,04,03,12,05,17.70
2022,04,03,12,06,19.30
2022,04,03,12,07,20.90
2022,04,03,12,08,19.30
2022,04,03,12,09,19.30
2022,04,03,12,10,16.10
2022,04,03,12,11,16.10
2022,04,03,12,12,17.70
2022,04,03,12,13,16.10
2022,04,03,12,14,16.10
2022,04,03,12,15,17.70
2022,04,03,12,16,19.30
2022,04,03,12,17,22.50
2022,04,03,12,18,22.50
2022,04,03,12,19,19.30
2022,04,03,12,20,19.30
2022,04,03,12,21,17.70
2022,04,03,12,22,20.90
2022,04,03,12,23,22.50
2022,04,03,12,24,19.30
2022,04,03,12,25,17.70
2022,04,03,12,26,20.90
2022,04,03,12,27,20.90
2022,04,03,12,28,14.50
2022,04,03,12,29,20.90
2022,04,03,12,30,19.30
2022,04,03,12,31,16.10
2022,04,03,12,32,17.70
2022,04,03,12,33,9.60
2022,04,03,12,34,19.30
2022,04,03,12,35,19.30
2022,04,03,12,36,17.70
2022,04,03,12,37,16.10
2022,04,03,12,38,16.10
2022,04,03,12,39,17.70
2022,04,03,12,40,16.10
2022,04,03,12,41,14.50
2022,04,03,12,42,19.30
2022,04,03,12,43,20.90
2022,04,03,12,44,19.30
2022,04,03,12,45,19.30
2022,04,03,12,46,17.70
2022,04,03,12,47,17.70
2022,04,03,12,48,16.10
2022,04,03,12,49,19.30
2022,04,03,12,50,16.10
2022,04,03,12,51,16.10
2022,04,03,12,52,8.10
2022,04,03,12,53,8.10
2022,04,03,12,54,8.10
2022,04,03,12,55,16.10
2022,04,03,12,56,9.60
2022,04,03,12,57,9.60
2022,04,03,12,58,8.10
2022,04,03,12,59,3.20
2022,04,03,13,00,6.40
2022,04,03,13,01,6.40
2022,04,03,13,02,3.20
2022,04,03,13,03,1.60
2022,04,03,13,04,8.10
2022,04,03,13,05,9.60
2022,04,03,13,06,11.30
2022,04,03,13,07,8.10
2022,04,03,13,08,9.60
2022,04,03,13,09,8.10
2022,04,03,13,10,6.40
2022,04,03,13,11,8.10
2022,04,03,13,12,8.10
2022,04,03,13,13,6.40
2022,04,03,13,14,6.40
2022,04,03,13,15,6.40
2022,04,03,13,16,4.80
2022,04,03,13,17,4.80
2022,04,03,13,18,4.80
2022,04,03,13,19,8.10
2022,04,03,13,20,8.10
2022,04,03,13,21,8.10
2022,04,03,13,22,8.10
2022,04,03,13,23,6.40
2022,04,03,13,24,6.40
2022,04,03,13,25,6.40
2022,04,03,13,26,4.80
2022,04,03,13,27,3.20
2022,04,03,13,28,4.80
2022,04,03,13,29,3.20
2022,04,03,13,30,4.80
2022,04,03,13,31,4.80
2022,04,03,13,32,4.80
2022,04,03,13,33,6.40
2022,04,03,13,34,4.80
2022,04,03,13,35,4.80
2022,04,03,13,36,3.20
2022,04,03,13,37,4.80
2022,04,03,13,38,3.20
2022,04,03,13,39,3.20
2022,04,03,13,40,1.60
2022,04,03,13,41,4.80
2022,04,03,13,42,4.80
2022,04,03,13,43,3.20
2022,04,03,13,44,1.60
2022,04,03,13,45,3.20
2022,04,03,13,46,4.80
2022,04,03,13,47,4.80
2022,04,03,13,48,4.80
2022,04,03,13,49,1.60
2022,04,03,13,50,1.60
2022,04,03,13,51,6.40
2022,04,03,13,52,6.40
2022,04,03,13,53,3.20
2022,04,03,13,54,3.20
2022,04,03,13,55,1.60
2022,04,03,13,56,1.60
2022,04,03,13,57,3.20
2022,04,03,13,58,4.80
2022,04,03,13,59,4.80
2022,04,03,14,00,6.40
2022,04,03,14,01,6.40
2022,04,03,14,02,4.80
2022,04,03,14,03,4.80
2022,04,03,14,04,6.40
2022,04,03,14,05,6.40
2022,04,03,14,06,4.80
2022,04,03,14,07,3.20
2022,04,03,14,08,3.20
2022,04,03,14,11,3.20
2022,04,03,14,12,4.80
2022,04,03,14,13,3.20
2022,04,03,14,14,1.60
2022,04,03,14,19,1.60
2022,04,03,14,20,4.80
2022,04,03,14,21,6.40
2022,04,03,14,22,3.20
2022,04,03,14,23,4.80
2022,04,03,14,24,3.20
2022,04,03,14,25,1.60
2022,04,03,14,26,1.60
2022,04,03,14,27,3.20
2022,04,03,14,28,4.80
2022,04,03,14,29,1.60
2022,04,03,14,30,1.60
2022,04,03,14,31,1.60
2022,04,03,14,32,1.60
2022,04,03,14,33,1.60
2022,04,03,14,34,1.60
2022,04,03,14,35,4.80
2022,04,03,14,36,6.40
2022,04,03,14,37,3.20
2022,04,03,14,38,3.20
2022,04,03,14,39,1.60
2022,04,03,14,40,1.60
2022,04,03,14,41,3.20
2022,04,03,14,42,3.20
2022,04,03,14,43,3.20
2022,04,03,14,44,3.20
2022,04,03,14,45,4.80
2022,04,03,14,46,3.20
2022,04,03,14,47,1.60
2022,04,03,14,48,3.20
2022,04,03,14,49,4.80
2022,04,03,14,50,6.40
2022,04,03,14,51,6.40
2022,04,03,14,52,6.40
2022,04,03,14,53,3.20
2022,04,03,14,54,8.10
2022,04,03,14,55,8.10
2022,04,03,14,56,8.10
2022,04,03,14,57,8.10
2022,04,03,14,58,8.10
2022,04,03,14,59,4.80
2022,04,03,15,00,8.10
2022,04,03,15,01,8.10
2022,04,03,15,02,6.40
2022,04,03,15,03,6.40
2022,04,03,15,04,6.40
2022,04,03,15,05,4.80
2022,04,03,15,06,4.80
2022,04,03,15,07,8.10
2022,04,03,15,08,8.10
2022,04,03,15,09,4.80
2022,04,03,15,10,4.80
2022,04,03,15,11,6.40
2022,04,03,15,12,6.40
2022,04,03,15,13,6.40
2022,04,03,15,14,6.40
2022,04,03,15,15,6.40
2022,04,03,15,16,4.80
2022,04,03,15,17,6.40
2022,04,03,15,18,8.10
2022,04,03,15,19,6.40
2022,04,03,15,20,6.40
2022,04,03,15,21,4.80
2022,04,03,15,22,6.40
2022,04,03,15,23,8.10
2022,04,03,15,24,8.10
2022,04,03,15,25,9.60
2022,04,03,15,26,8.10
2022,04,03,15,27,9.60
2022,04,03,15,28,8.10
2022,04,03,15,29,6.40
2022,04,03,15,30,6.40
2022,04,03,15,31,6.40
2022,04,03,15,32,6.40
2022,04,03,15,33,8.10
2022,04,03,15,34,4.80
2022,04,03,15,35,6.40
2022,04,03,15,36,3.20
2022,04,03,15,37,3.20
2022,04,03,15,38,4.80
2022,04,03,15,39,3.20
2022,04,03,15,40,3.20
2022,04,03,15,41,1.60
2022,04,03,15,42,4.80
2022,04,03,15,43,4.80
2022,04,03,15,44,4.80
2022,04,03,15,45,4.80
2022,04,03,15,46,3.20
2022,04,03,15,47,3.20
2022,04,03,15,48,4.80
2022,04,03,15,49,3.20
2022,04,03,15,50,3.20
2022,04,03,15,51,4.80
2022,04,03,15,52,3.20
2022,04,03,15,53,4.80
2022,04,03,15,54,3.20
2022,04,03,15,55,4.80
2022,04,03,15,56,4.80
2022,04,03,15,57,6.40
2022,04,03,15,58,4.80
2022,04,03,15,59,4.80
2022,04,03,16,00,3.20
2022,04,03,16,01,4.80
2022,04,03,16,02,8.10
2022,04,03,16,03,8.10
2022,04,03,16,04,6.40
2022,04,03,16,05,9.60
2022,04,03,16,06,11.30
2022,04,03,16,07,9.60
2022,04,03,16,08,8.10
2022,04,03,16,09,4.80
2022,04,03,16,10,4.80
2022,04,03,16,11,3.20
2022,04,03,16,12,3.20
2022,04,03,16,13,4.80
2022,04,03,16,14,4.80
2022,04,03,16,15,4.80
2022,04,03,16,16,3.20
2022,04,03,16,17,4.80
2022,04,03,16,18,6.40
2022,04,03,16,19,4.80
2022,04,03,16,20,4.80
2022,04,03,16,21,4.80
2022,04,03,16,22,3.20
2022,04,03,16,23,3.20
2022,04,03,16,24,3.20
2022,04,03,16,25,3.20
2022,04,03,16,26,3.20
2022,04,03,16,27,3.20
2022,04,03,16,28,4.80
2022,04,03,16,29,4.80
2022,04,03,16,30,1.60
2022,04,03,16,31,6.40
2022,04,03,16,32,8.10
2022,04,03,16,33,8.10
2022,04,03,16,34,8.10
2022,04,03,16,35,9.60
2022,04,03,16,36,9.60
2022,04,03,16,37,9.60
2022,04,03,16,38,8.10
2022,04,03,16,39,8.10
2022,04,03,16,40,8.10
2022,04,03,16,41,6.40
2022,04,03,16,42,4.80
2022,04,03,16,43,6.40
2022,04,03,16,44,6.40
2022,04,03,16,45,8.10
2022,04,03,16,46,4.80
2022,04,03,16,47,8.10
2022,04,03,16,48,8.10
2022,04,03,16,49,6.40
2022,04,03,16,50,6.40
2022,04,03,16,51,6.40
2022,04,03,16,52,8.10
2022,04,03,16,53,8.10
2022,04,03,16,54,8.10
2022,04,03,16,55,6.40
2022,04,03,16,56,6.40
2022,04,03,16,57,6.40
2022,04,03,16,58,6.40
2022,04,03,16,59,4.80
2022,04,03,17,00,4.80
2022,04,03,17,01,4.80
2022,04,03,17,03,1.60
2022,04,03,17,06,1.60
2022,04,03,17,07,1.60
2022,04,03,17,08,3.20
2022,04,03,17,09,3.20
2022,04,03,17,10,4.80
2022,04,03,17,11,4.80
2022,04,03,17,12,3.20
2022,04,03,17,13,3.20
2022,04,03,17,14,3.20
2022,04,03,17,15,1.60
2022,04,03,17,17,1.60
2022,04,03,17,19,3.20
2022,04,03,17,20,3.20
2022,04,03,17,21,4.80
2022,04,03,17,22,4.80
2022,04,03,17,23,6.40
2022,04,03,17,24,4.80
2022,04,03,17,25,4.80
2022,04,03,17,26,4.80
2022,04,03,17,27,4.80
2022,04,03,17,28,4.80
2022,04,03,17,29,3.20
2022,04,03,17,30,6.40
2022,04,03,17,31,9.60
2022,04,03,17,32,6.40
2022,04,03,17,33,6.40
2022,04,03,17,34,8.10
2022,04,03,17,35,6.40
2022,04,03,17,36,8.10
2022,04,03,17,37,8.10
2022,04,03,17,38,8.10
2022,04,03,17,39,1.60
2022,04,03,17,40,4.80
2022,04,03,17,41,4.80
2022,04,03,17,42,1.60
2022,04,03,17,43,3.20
2022,04,03,17,44,3.20
2022,04,03,17,45,1.60
2022,04,03,17,46,3.20
2022,04,03,17,47,1.60
2022,04,03,17,49,4.80
2022,04,03,17,52,3.20
2022,04,03,17,53,3.20
2022,04,03,17,54,1.60
2022,04,03,17,55,1.60
2022,04,03,17,56,1.60
2022,04,03,17,57,1.60
2022,04,03,18,00,1.60
2022,04,03,18,01,3.20
2022,04,03,18,02,3.20
2022,04,03,18,03,3.20
2022,04,03,18,04,1.60
2022,04,03,18,05,1.60
2022,04,03,18,08,3.20
2022,04,03,18,09,1.60
2022,04,03,18,10,1.60
2022,04,03,18,18,1.60
2022,04,03,18,19,3.20
2022,04,03,18,20,1.60
2022,04,03,18,22,1.60
2022,04,03,18,26,1.60
2022,04,03,18,27,1.60
2022,04,03,18,28,1.60
2022,04,03,18,30,1.60
2022,04,03,18,31,1.60
2022,04,03,18,32,1.60
2022,04,03,18,33,3.20
2022,04,03,18,34,3.20
2022,04,03,18,35,3.20
2022,04,03,18,36,3.20
2022,04,03,18,37,3.20
2022,04,03,18,38,1.60
2022,04,03,18,39,1.60
2022,04,03,18,40,3.20
2022,04,03,18,41,1.60
2022,04,03,18,42,1.60
2022,04,03,18,43,1.60
2022,04,03,18,44,1.60
2022,04,03,18,45,1.60
2022,04,03,18,46,1.60
2022,04,03,18,47,3.20
2022,04,03,18,48,1.60
2022,04,03,18,49,1.60
2022,04,03,18,52,1.60
2022,04,03,18,53,1.60
2022,04,03,18,54,1.60
2022,04,03,18,55,3.20
2022,04,03,18,56,1.60
2022,04,03,18,57,1.60
2022,04,03,18,58,1.60
2022,04,03,18,59,1.60
2022,04,03,19,00,1.60
2022,04,03,19,01,1.60
2022,04,03,19,02,1.60
2022,04,03,19,03,1.60
2022,04,03,19,04,1.60
2022,04,03,19,09,1.60
2022,04,03,19,10,1.60
2022,04,03,19,11,3.20
2022,04,03,19,12,3.20
2022,04,03,19,13,3.20
2022,04,03,19,14,6.40
2022,04,03,19,15,3.20
2022,04,03,19,16,4.80
2022,04,03,19,17,9.60
2022,04,03,19,18,8.10
2022,04,03,19,19,8.10
2022,04,03,19,20,3.20
2022,04,03,19,21,1.60
2022,04,03,19,22,1.60
2022,04,03,19,23,4.80
2022,04,03,19,24,8.10
2022,04,03,19,25,8.10
2022,04,03,19,26,6.40
2022,04,03,19,27,6.40
2022,04,03,19,28,9.60
2022,04,03,19,29,9.60
2022,04,03,19,30,9.60
2022,04,03,19,31,8.10
2022,04,03,19,32,4.80
2022,04,03,19,33,6.40
2022,04,03,19,34,8.10
2022,04,03,19,35,9.60
2022,04,03,19,36,11.30
2022,04,03,19,37,9.60
2022,04,03,19,38,8.10
2022,04,03,19,39,9.60
2022,04,03,19,40,9.60
2022,04,03,19,41,11.30
2022,04,03,19,42,9.60
2022,04,03,19,43,9.60
2022,04,03,19,44,9.60
2022,04,03,19,45,9.60
2022,04,03,19,46,9.60
2022,04,03,19,47,9.60
2022,04,03,19,48,11.30
2022,04,03,19,49,9.60
2022,04,03,19,50,8.10
2022,04,03,19,51,9.60
2022,04,03,19,52,6.40
2022,04,03,19,53,6.40
2022,04,03,19,54,8.10
2022,04,03,19,55,6.40
2022,04,03,19,56,6.40
2022,04,03,19,57,4.80
2022,04,03,19,58,4.80
2022,04,03,19,59,4.80
2022,04,03,20,00,4.80
2022,04,03,20,01,3.20
2022,04,03,20,02,4.80
2022,04,03,20,03,3.20
2022,04,03,20,04,4.80
2022,04,03,20,05,3.20
2022,04,03,20,06,3.20
2022,04,03,20,07,3.20
2022,04,03,20,08,3.20
2022,04,03,20,09,1.60
2022,04,03,20,10,3.20
2022,04,03,20,11,3.20
2022,04,03,20,13,1.60
2022,04,03,20,14,3.20
2022,04,03,20,15,4.80
2022,04,03,20,16,3.20
2022,04,03,20,17,3.20
2022,04,03,20,18,4.80
2022,04,03,20,19,3.20
2022,04,03,20,21,1.60
2022,04,03,20,22,4.80
2022,04,03,20,23,4.80
2022,04,03,20,24,3.20
2022,04,03,20,25,6.40
2022,04,03,20,26,4.80
2022,04,03,20,27,1.60
2022,04,03,20,28,1.60
2022,04,03,20,29,4.80
2022,04,03,20,30,4.80
2022,04,03,20,31,6.40
2022,04,03,20,32,6.40
2022,04,03,20,33,3.20
2022,04,03,20,34,6.40
2022,04,03,20,35,6.40
2022,04,03,20,36,4.80
2022,04,03,20,37,3.20
2022,04,03,20,38,3.20
2022,04,03,20,39,6.40
2022,04,03,20,40,6.40
2022,04,03,20,41,6.40
2022,04,03,20,42,4.80
2022,04,03,20,43,4.80
2022,04,03,20,44,6.40
2022,04,03,20,45,6.40
2022,04,03,20,46,4.80
2022,04,03,20,47,3.20
2022,04,03,20,48,3.20
2022,04,03,20,49,3.20
2022,04,03,20,50,8.10
2022,04,03,20,51,8.10
2022,04,03,20,52,6.40
2022,04,03,20,53,6.40
2022,04,03,20,54,4.80
2022,04,03,20,55,3.20
2022,04,03,20,56,3.20
2022,04,03,20,57,3.20
2022,04,03,20,58,4.80
2022,04,03,20,59,6.40
2022,04,03,21,00,6.40
2022,04,03,21,01,6.40
2022,04,03,21,02,6.40
2022,04,03,21,03,6.40
2022,04,03,21,04,3.20
2022,04,03,21,05,1.60